Zurück zum Katalog

GNOMES-3

AktivWissenschaftSSO
NORAD 52158·PAYLOAD·🇺🇸 United States

Gestartet Apr 1, 2022 von Cape Canaveral Space Force Station

Loading…

Nächste Überflüge (nächste 24 Stunden)

TLE

AktuellSource: Space-Track

Epoche: Sep 14, 2026, 04:01 UTC

1 52158U 22033B   26257.16792418  .00001290  00000-0  15604-3 0  9992
2 52158  97.8166 331.8713 0011561  38.6076 321.5963 14.85349620240546

Verfolge GNOMES-3 in Echtzeit mit AllMySat

Download on the App Store